Time,TemperatureF,DewpointF,PressureIn,WindDirection,WindDirectionDegrees,WindSpeedMPH,WindSpeedGustMPH,Humidity,HourlyPrecipIn,Conditions,Clouds,dailyrainin,SoftwareType,DateUTC
2013-07-13 00:03:00,69.4,59.2,29.94,ESE,112,0.0,-999.0,70,-99.99,,,0.00,Acu-Link.com,2013-07-13 05:03:00,
2013-07-13 00:18:00,68.7,58.5,29.93,ENE,67,0.0,-999.0,70,-99.99,,,0.00,Acu-Link.com,2013-07-13 05:18:00,
2013-07-13 00:33:00,68.4,59.4,29.94,ESE,112,0.0,-999.0,73,-99.99,,,0.00,Acu-Link.com,2013-07-13 05:33:00,
2013-07-13 00:49:00,67.3,59.1,29.94,ESE,112,0.0,-999.0,75,-99.99,,,0.00,Acu-Link.com,2013-07-13 05:49:00,
2013-07-13 01:04:00,66.7,58.1,29.94,ESE,112,0.0,-999.0,74,-99.99,,,0.00,Acu-Link.com,2013-07-13 06:04:00,
2013-07-13 01:19:00,66.7,58.5,29.94,SE,135,0.0,-999.0,75,-99.99,,,0.00,Acu-Link.com,2013-07-13 06:19:00,
2013-07-13 01:35:00,66.2,58.4,29.94,SE,135,0.0,-999.0,76,-99.99,,,0.00,Acu-Link.com,2013-07-13 06:35:00,
2013-07-13 01:50:00,65.8,58.0,29.93,NNE,22,0.0,-999.0,76,-99.99,,,0.00,Acu-Link.com,2013-07-13 06:50:00,
2013-07-13 02:05:00,64.9,58.2,29.94,ENE,67,0.0,-999.0,79,-99.99,,,0.00,Acu-Link.com,2013-07-13 07:05:00,
2013-07-13 02:21:00,64.4,57.7,29.94,NE,45,0.0,-999.0,79,-99.99,,,0.00,Acu-Link.com,2013-07-13 07:21:00,
2013-07-13 02:36:00,63.5,57.9,29.94,ENE,67,0.0,-999.0,82,-99.99,,,0.00,Acu-Link.com,2013-07-13 07:36:00,
2013-07-13 02:51:00,63.3,57.7,29.94,ESE,112,0.0,-999.0,82,-99.99,,,0.00,Acu-Link.com,2013-07-13 07:51:00,
2013-07-13 03:06:00,62.8,57.9,29.95,ESE,112,0.0,-999.0,84,-99.99,,,0.00,Acu-Link.com,2013-07-13 08:06:00,
2013-07-13 03:21:00,62.6,58.0,29.95,ESE,112,0.0,-999.0,85,-99.99,,,0.00,Acu-Link.com,2013-07-13 08:21:00,
2013-07-13 03:37:00,62.2,58.0,29.96,ESE,112,0.0,-999.0,86,-99.99,,,0.00,Acu-Link.com,2013-07-13 08:37:00,
2013-07-13 03:52:00,61.9,57.7,29.95,NE,45,0.0,-999.0,86,-99.99,,,0.00,Acu-Link.com,2013-07-13 08:52:00,
2013-07-13 04:07:00,61.9,58.0,29.95,NE,45,1.1,-999.0,87,-99.99,,,0.00,Acu-Link.com,2013-07-13 09:07:00,
2013-07-13 04:22:00,62.8,58.9,29.96,NNE,22,0.0,-999.0,87,-99.99,,,0.00,Acu-Link.com,2013-07-13 09:22:00,
2013-07-13 04:37:00,62.8,58.9,29.95,East,90,0.0,-999.0,87,-99.99,,,0.00,Acu-Link.com,2013-07-13 09:37:00,
2013-07-13 04:52:00,63.3,58.0,29.95,NE,45,0.0,-999.0,83,-99.99,,,0.00,Acu-Link.com,2013-07-13 09:52:00,
2013-07-13 05:08:00,63.5,58.2,29.95,NE,45,0.0,-999.0,83,-99.99,,,0.00,Acu-Link.com,2013-07-13 10:08:00,
2013-07-13 05:23:00,63.3,57.7,29.96,ESE,112,0.0,-999.0,82,-99.99,,,0.00,Acu-Link.com,2013-07-13 10:23:00,
2013-07-13 05:38:00,63.0,57.4,29.96,ENE,67,0.0,-999.0,82,-99.99,,,0.00,Acu-Link.com,2013-07-13 10:38:00,
2013-07-13 05:54:00,62.8,56.5,29.96,East,90,0.0,-999.0,80,-99.99,,,0.00,Acu-Link.com,2013-07-13 10:54:00,
2013-07-13 06:09:00,63.1,55.8,29.96,ESE,112,0.0,-999.0,77,-99.99,,,0.00,Acu-Link.com,2013-07-13 11:09:00,
2013-07-13 06:24:00,63.7,55.6,29.96,ESE,112,0.0,-999.0,75,-99.99,,,0.00,Acu-Link.com,2013-07-13 11:24:00,
2013-07-13 06:40:00,64.8,56.3,29.96,NNW,337,2.2,-999.0,74,-99.99,,,0.00,Acu-Link.com,2013-07-13 11:40:00,
2013-07-13 06:55:00,66.4,56.3,29.97,ESE,112,2.7,-999.0,70,-99.99,,,0.00,Acu-Link.com,2013-07-13 11:55:00,
2013-07-13 07:10:00,66.9,56.4,29.96,SE,135,3.2,-999.0,69,-99.99,,,0.00,Acu-Link.com,2013-07-13 12:10:00,
2013-07-13 07:26:00,68.2,57.2,29.96,ESE,112,3.7,-999.0,68,-99.99,,,0.00,Acu-Link.com,2013-07-13 12:26:00,
2013-07-13 07:41:00,69.3,57.9,29.96,ESE,112,2.2,-999.0,67,-99.99,,,0.00,Acu-Link.com,2013-07-13 12:41:00,
2013-07-13 07:56:00,70.2,57.4,29.96,SE,135,5.8,-999.0,64,-99.99,,,0.00,Acu-Link.com,2013-07-13 12:56:00,
2013-07-13 08:12:00,71.2,57.5,29.96,SE,135,3.7,-999.0,62,-99.99,,,0.00,Acu-Link.com,2013-07-13 13:12:00,
2013-07-13 08:27:00,72.3,57.6,29.96,SSW,202,3.2,-999.0,60,-99.99,,,0.00,Acu-Link.com,2013-07-13 13:27:00,
2013-07-13 08:42:00,73.2,58.0,29.97,SSE,157,5.3,-999.0,59,-99.99,,,0.00,Acu-Link.com,2013-07-13 13:42:00,
2013-07-13 08:57:00,74.1,58.4,29.98,SE,135,3.2,-999.0,58,-99.99,,,0.00,Acu-Link.com,2013-07-13 13:57:00,
2013-07-13 09:13:00,74.7,58.4,29.98,SE,135,3.7,-999.0,57,-99.99,,,0.00,Acu-Link.com,2013-07-13 14:13:00,
2013-07-13 09:28:00,75.7,58.9,29.98,ESE,112,2.7,-999.0,56,-99.99,,,0.00,Acu-Link.com,2013-07-13 14:28:00,
2013-07-13 09:43:00,77.5,59.5,29.99,SE,135,3.2,-999.0,54,-99.99,,,0.00,Acu-Link.com,2013-07-13 14:43:00,
2013-07-13 09:58:00,77.7,59.7,29.98,ESE,112,4.2,-999.0,54,-99.99,,,0.00,Acu-Link.com,2013-07-13 14:58:00,
2013-07-13 10:14:00,78.4,59.3,29.98,SSE,157,4.7,-999.0,52,-99.99,,,0.00,Acu-Link.com,2013-07-13 15:14:00,
2013-07-13 10:29:00,79.5,60.3,29.98,SSE,157,4.2,-999.0,52,-99.99,,,0.00,Acu-Link.com,2013-07-13 15:29:00,
2013-07-13 10:44:00,80.8,59.3,29.98,ESE,112,3.2,-999.0,48,-99.99,,,0.00,Acu-Link.com,2013-07-13 15:44:00,
2013-07-13 11:00:00,81.3,59.7,29.99,ESE,112,4.7,-999.0,48,-99.99,,,0.00,Acu-Link.com,2013-07-13 16:00:00,
2013-07-13 11:15:00,82.6,59.7,29.98,SE,135,3.2,-999.0,46,-99.99,,,0.00,Acu-Link.com,2013-07-13 16:15:00,
2013-07-13 11:30:00,83.5,60.5,29.97,West,270,2.2,-999.0,46,-99.99,,,0.00,Acu-Link.com,2013-07-13 16:30:00,
2013-07-13 11:45:00,84.7,60.3,29.97,ENE,67,3.7,-999.0,44,-99.99,,,0.00,Acu-Link.com,2013-07-13 16:45:00,
2013-07-13 12:00:00,85.5,59.8,29.97,ESE,112,3.7,-999.0,42,-99.99,,,0.00,Acu-Link.com,2013-07-13 17:00:00,
2013-07-13 12:16:00,84.7,59.0,29.96,ESE,112,3.2,-999.0,42,-99.99,,,0.00,Acu-Link.com,2013-07-13 17:16:00,
2013-07-13 12:31:00,84.0,60.3,29.97,ESE,112,1.1,-999.0,45,-99.99,,,0.00,Acu-Link.com,2013-07-13 17:31:00,
2013-07-13 12:46:00,86.4,61.2,29.96,East,90,3.7,-999.0,43,-99.99,,,0.00,Acu-Link.com,2013-07-13 17:46:00,
2013-07-13 13:01:00,84.6,60.3,29.96,WNW,292,2.2,-999.0,44,-99.99,,,0.00,Acu-Link.com,2013-07-13 18:01:00,
2013-07-13 13:16:00,86.4,61.2,29.94,East,90,2.7,-999.0,43,-99.99,,,0.00,Acu-Link.com,2013-07-13 18:16:00,
2013-07-13 13:32:00,87.8,61.1,29.94,SSE,157,3.2,-999.0,41,-99.99,,,0.00,Acu-Link.com,2013-07-13 18:32:00,
2013-07-13 13:47:00,86.7,60.1,29.94,SSW,202,1.1,-999.0,41,-99.99,,,0.00,Acu-Link.com,2013-07-13 18:47:00,
2013-07-13 14:02:00,88.2,61.5,29.93,East,90,3.2,-999.0,41,-99.99,,,0.00,Acu-Link.com,2013-07-13 19:02:00,
2013-07-13 14:18:00,87.1,61.2,29.94,SE,135,5.3,-999.0,42,-99.99,,,0.00,Acu-Link.com,2013-07-13 19:18:00,
2013-07-13 14:33:00,87.6,61.0,29.92,North,0,2.7,-999.0,41,-99.99,,,0.00,Acu-Link.com,2013-07-13 19:33:00,
2013-07-13 14:48:00,88.0,61.3,29.93,NNE,22,2.7,-999.0,41,-99.99,,,0.00,Acu-Link.com,2013-07-13 19:48:00,
2013-07-13 15:03:00,88.5,61.8,29.92,SSE,157,2.2,-999.0,41,-99.99,,,0.00,Acu-Link.com,2013-07-13 20:03:00,
2013-07-13 15:18:00,87.6,61.6,29.91,SSE,157,2.7,-999.0,42,-99.99,,,0.00,Acu-Link.com,2013-07-13 20:18:00,
2013-07-13 15:34:00,88.0,60.6,29.91,ESE,112,2.2,-999.0,40,-99.99,,,0.00,Acu-Link.com,2013-07-13 20:34:00,
2013-07-13 15:50:00,88.7,60.5,29.91,NE,45,2.2,-999.0,39,-99.99,,,0.00,Acu-Link.com,2013-07-13 20:50:00,
2013-07-13 16:05:00,88.7,60.5,29.90,ESE,112,2.7,-999.0,39,-99.99,,,0.00,Acu-Link.com,2013-07-13 21:05:00,
2013-07-13 16:22:00,88.2,60.8,29.91,East,90,2.7,-999.0,40,-99.99,,,0.00,Acu-Link.com,2013-07-13 21:22:00,
2013-07-13 16:37:00,87.1,59.1,29.90,East,90,2.2,-999.0,39,-99.99,,,0.00,Acu-Link.com,2013-07-13 21:37:00,
2013-07-13 16:52:00,86.7,60.1,29.90,ESE,112,3.2,-999.0,41,-99.99,,,0.00,Acu-Link.com,2013-07-13 21:52:00,
2013-07-13 17:08:00,85.8,60.0,29.90,East,90,1.7,-999.0,42,-99.99,,,0.00,Acu-Link.com,2013-07-13 22:08:00,
2013-07-13 17:23:00,85.6,60.5,29.90,NNE,22,1.7,-999.0,43,-99.99,,,0.00,Acu-Link.com,2013-07-13 22:23:00,
2013-07-13 17:39:00,85.3,60.2,29.90,ENE,67,1.7,-999.0,43,-99.99,,,0.00,Acu-Link.com,2013-07-13 22:39:00,
2013-07-13 17:54:00,84.6,60.9,29.89,East,90,1.1,-999.0,45,-99.99,,,0.00,Acu-Link.com,2013-07-13 22:54:00,
2013-07-13 18:09:00,84.6,60.3,29.90,ESE,112,0.0,-999.0,44,-99.99,,,0.00,Acu-Link.com,2013-07-13 23:09:00,
2013-07-13 18:24:00,86.4,61.2,29.91,West,270,0.0,-999.0,43,-99.99,,,0.00,Acu-Link.com,2013-07-13 23:24:00,
2013-07-13 18:40:00,86.2,61.7,29.90,North,0,1.1,-999.0,44,-99.99,,,0.00,Acu-Link.com,2013-07-13 23:40:00,
2013-07-13 18:55:00,85.6,63.0,29.90,WNW,292,1.1,-999.0,47,-99.99,,,0.00,Acu-Link.com,2013-07-13 23:55:00,
2013-07-13 19:10:00,85.1,63.2,29.89,West,270,1.1,-999.0,48,-99.99,,,0.00,Acu-Link.com,2013-07-14 00:10:00,
2013-07-13 19:25:00,84.0,63.9,29.89,East,90,0.0,-999.0,51,-99.99,,,0.00,Acu-Link.com,2013-07-14 00:25:00,
2013-07-13 19:40:00,82.0,63.2,29.90,NE,45,0.0,-999.0,53,-99.99,,,0.00,Acu-Link.com,2013-07-14 00:40:00,
2013-07-13 19:56:00,81.7,62.9,29.89,ESE,112,0.0,-999.0,53,-99.99,,,0.00,Acu-Link.com,2013-07-14 00:56:00,
2013-07-13 20:11:00,80.4,63.7,29.89,ESE,112,1.7,-999.0,57,-99.99,,,0.00,Acu-Link.com,2013-07-14 01:11:00,
2013-07-13 20:26:00,79.2,62.6,29.89,NNE,22,0.0,-999.0,57,-99.99,,,0.00,Acu-Link.com,2013-07-14 01:26:00,
2013-07-13 20:41:00,77.9,63.3,29.90,South,180,0.0,-999.0,61,-99.99,,,0.00,Acu-Link.com,2013-07-14 01:41:00,
2013-07-13 20:56:00,76.6,63.0,29.90,SSE,157,1.7,-999.0,63,-99.99,,,0.00,Acu-Link.com,2013-07-14 01:56:00,
2013-07-13 21:12:00,75.7,62.2,29.89,ESE,112,0.0,-999.0,63,-99.99,,,0.00,Acu-Link.com,2013-07-14 02:12:00,
2013-07-13 21:27:00,75.2,61.7,29.89,ESE,112,1.7,-999.0,63,-99.99,,,0.00,Acu-Link.com,2013-07-14 02:27:00,
2013-07-13 21:42:00,74.5,61.1,29.90,NNW,337,0.0,-999.0,63,-99.99,,,0.00,Acu-Link.com,2013-07-14 02:42:00,
2013-07-13 21:57:00,73.6,59.3,29.90,NNE,22,1.1,-999.0,61,-99.99,,,0.00,Acu-Link.com,2013-07-14 02:57:00,
2013-07-13 22:13:00,73.4,59.6,29.88,ESE,112,0.0,-999.0,62,-99.99,,,0.00,Acu-Link.com,2013-07-14 03:13:00,
2013-07-13 22:28:00,73.2,59.8,29.89,North,0,1.7,-999.0,63,-99.99,,,0.00,Acu-Link.com,2013-07-14 03:28:00,
2013-07-13 22:43:00,73.6,59.8,29.91,East,90,1.7,-999.0,62,-99.99,,,0.00,Acu-Link.com,2013-07-14 03:43:00,
2013-07-13 22:58:00,73.6,59.3,29.91,South,180,1.7,-999.0,61,-99.99,,,0.00,Acu-Link.com,2013-07-14 03:58:00,
2013-07-13 23:13:00,73.2,59.4,29.90,North,0,1.1,-999.0,62,-99.99,,,0.00,Acu-Link.com,2013-07-14 04:13:00,
2013-07-13 23:29:00,73.4,59.6,29.93,ESE,112,2.7,-999.0,62,-99.99,,,0.00,Acu-Link.com,2013-07-14 04:29:00,
2013-07-13 23:44:00,73.2,58.5,29.93,ESE,112,0.0,-999.0,60,-99.99,,,0.00,Acu-Link.com,2013-07-14 04:44:00,
2013-07-13 23:59:00,73.0,57.8,29.92,ESE,112,0.0,-999.0,59,-99.99,,,0.00,Acu-Link.com,2013-07-14 04:59:00,